Theta_e
331 329 329 327 326 326 327 326 326 324 324 323 324 324 321 319 314 311 310 312 313 316 320 318 321 325 326 326 328 329 330 335 337 338 341 342 344 343 341 341 341 341 341 341 341 341 341 341 342 344 345 346 346 347 348 349 351 352 353 354 355 355 354 352 353 352 353 353 352 354 356 357 359 362
331 331 329 329 327 328 325 324 326 325 323 323 322 322 321 321 316 315 312 312 316 316 319 319 318 322 323 325 326 327 328 335 333 334 336 339 341 340 340 340 341 341 340 339 338 339 339 340 340 340 341 342 344 345 346 346 348 350 351 352 353 353 353 352 352 352 352 352 352 352 353 354 355 356
333 330 328 327 327 327 326 325 325 325 325 322 322 321 322 321 319 317 316 312 317 318 316 318 321 321 322 324 324 325 326 330 331 332 334 336 339 340 340 338 338 339 338 337 337 336 336 337 338 337 338 339 341 342 343 345 345 347 349 350 351 351 351 351 351 352 352 352 352 351 351 352 353 353
334 330 328 327 328 327 325 324 324 323 324 324 321 321 321 320 320 319 318 315 314 317 318 318 320 321 321 322 322 322 324 328 331 329 331 334 340 339 339 340 338 337 336 337 336 335 334 335 336 337 337 338 340 341 341 341 343 344 345 346 347 349 349 348 349 350 351 351 350 350 350 350 351 352
333 331 329 328 328 328 325 323 324 323 323 322 322 322 319 319 319 319 317 316 315 317 319 319 319 321 321 320 321 321 322 323 325 329 329 332 334 336 337 339 340 338 336 335 335 335 335 334 335 336 337 338 339 341 342 341 341 342 341 343 343 344 346 346 345 347 348 349 349 349 349 349 350 351
333 331 329 329 328 327 325 324 323 323 323 322 320 319 320 318 319 320 317 317 316 314 318 318 320 320 321 318 321 320 320 321 324 324 326 329 333 335 337 338 339 339 337 335 333 334 334 334 334 335 336 337 338 338 339 339 338 338 339 339 340 340 340 340 342 344 345 347 348 348 348 348 348 349
331 330 330 328 327 327 324 324 324 324 323 322 320 319 319 319 319 319 319 318 316 315 316 318 318 318 319 319 319 321 322 323 324 324 325 328 332 336 338 339 340 340 337 335 334 333 333 334 334 334 335 334 334 335 335 335 336 336 336 336 338 338 338 338 339 342 343 345 346 348 347 347 347 348
328 328 327 327 325 326 325 323 323 323 323 321 321 319 319 319 319 319 319 319 317 317 316 318 318 319 318 319 320 321 322 322 322 323 325 327 329 333 337 339 339 339 336 335 334 333 332 333 333 333 333 332 331 331 331 332 332 332 332 333 334 334 334 334 336 339 339 340 343 345 346 346 345 343
328 327 327 326 326 324 323 323 323 322 321 321 320 320 319 320 319 320 320 319 319 318 317 318 320 320 319 320 320 321 319 320 321 323 323 324 326 330 334 338 340 339 335 334 334 333 332 332 332 332 332 331 330 329 329 329 329 329 329 330 331 331 332 332 331 334 335 336 337 338 340 343 344 344
328 328 328 327 325 324 323 323 323 321 320 321 321 320 320 319 320 319 319 319 319 318 318 318 317 319 317 317 318 319 320 319 319 320 321 324 327 330 332 336 339 341 341 340 339 335 334 333 331 331 331 331 330 329 328 327 326 325 325 324 324 327 329 329 331 331 331 332 334 336 337 339 341 341
329 329 329 328 326 325 324 323 320 321 322 322 321 322 320 320 319 318 318 319 318 318 318 318 318 317 318 317 316 318 320 320 319 318 319 320 324 326 328 329 336 340 340 340 338 338 337 335 334 331 329 330 329 329 327 326 324 323 322 321 321 322 323 324 327 328 328 329 330 330 330 333 338 339
328 329 329 329 328 326 325 323 323 323 322 322 321 321 320 320 319 318 318 318 318 318 318 317 316 317 316 316 317 318 318 316 317 319 319 317 318 320 323 326 327 333 337 338 339 338 336 335 333 330 330 330 329 328 328 328 327 324 322 321 323 323 322 322 324 325 325 325 325 326 327 327 331 335
325 325 326 327 327 330 331 326 325 324 322 322 320 320 320 320 319 318 318 318 318 317 317 317 317 316 315 315 315 314 314 314 314 317 318 317 319 321 322 324 328 332 334 336 338 338 340 339 338 338 336 336 333 332 331 333 332 328 323 322 324 325 324 322 322 324 324 324 323 322 324 325 328 331
326 326 326 328 333 331 328 326 323 321 320 320 322 322 320 319 318 318 318 317 317 317 317 316 316 314 313 313 314 314 314 316 317 317 317 316 318 320 320 322 325 331 334 334 334 337 340 340 339 340 339 340 339 337 336 335 335 332 327 325 324 325 325 322 322 322 322 322 322 321 320 323 326 327
326 324 322 321 327 331 330 329 324 321 320 320 319 319 319 319 320 318 316 316 317 319 318 317 315 314 313 314 315 314 315 316 316 317 318 317 318 317 316 315 320 328 333 333 333 334 339 340 338 340 340 341 341 340 339 335 333 330 328 326 325 325 325 325 324 323 321 321 320 320 320 321 323 324
322 322 323 324 325 326 327 326 325 325 324 321 320 319 318 318 318 318 319 320 319 318 317 316 316 315 314 314 314 314 315 315 316 317 318 317 317 316 316 317 316 323 334 334 333 333 338 340 339 339 341 342 343 342 337 333 332 329 328 327 326 325 325 325 326 326 324 322 322 323 323 323 324 324
323 324 324 325 325 326 328 329 326 323 323 322 320 318 318 318 318 318 318 318 321 322 319 317 315 315 314 313 314 316 316 317 315 316 316 317 317 318 317 318 319 322 330 331 331 331 335 339 338 338 340 342 344 344 336 332 331 329 327 327 327 326 325 325 326 326 325 323 323 323 323 322 322 322
323 324 324 324 324 324 325 324 323 323 322 322 322 322 322 321 322 320 319 318 317 318 318 316 315 316 316 314 315 318 318 316 315 315 315 316 316 317 317 319 320 323 327 327 329 328 333 339 338 337 339 342 342 343 339 332 330 329 327 326 325 325 324 324 324 324 324 324 322 321 320 320 319 320
323 324 325 323 323 324 324 325 324 322 322 322 322 320 320 321 322 321 321 319 319 320 319 318 317 316 316 316 316 317 318 317 317 317 317 317 317 318 320 321 322 322 326 329 329 324 331 338 335 338 340 341 342 343 337 332 329 328 325 325 325 324 324 324 324 323 323 323 322 320 319 318 317 316
324 324 324 323 323 323 323 321 320 322 323 320 319 319 320 320 318 318 317 317 319 320 319 318 317 316 316 314 316 317 316 316 317 318 319 319 318 317 316 315 318 319 323 327 326 325 328 337 335 337 341 342 341 343 345 334 328 327 326 326 325 324 322 322 323 323 323 323 322 320 317 314 314 313
323 323 323 323 323 323 322 321 317 316 316 319 319 319 317 316 315 316 319 318 316 315 312 311 312 312 313 313 313 312 313 317 317 318 316 315 316 315 313 314 316 317 320 324 328 328 328 334 336 337 340 341 341 342 345 346 330 327 325 324 324 322 322 321 321 322 322 322 322 321 319 314 313 313
321 323 330 330 323 322 321 317 313 315 316 319 317 315 313 313 313 315 318 319 319 315 314 314 315 315 315 314 314 314 315 314 315 317 313 315 316 314 315 313 316 317 320 323 331 330 329 333 337 336 335 336 337 340 343 346 340 328 325 324 323 321 321 321 320 321 321 321 321 320 317 314 313 317
319 320 323 326 319 319 320 312 312 312 313 315 314 311 312 313 314 316 317 316 314 314 315 316 317 317 316 319 319 320 315 316 318 321 320 320 318 315 316 316 316 315 318 325 336 329 330 332 335 336 331 331 333 335 337 343 343 336 333 331 328 322 321 320 318 317 318 319 319 319 315 312 313 321
316 316 318 321 315 312 310 307 305 306 306 311 313 313 314 314 314 316 314 313 313 314 316 316 317 317 317 317 317 317 318 319 322 321 321 321 319 317 317 318 317 315 318 328 337 332 332 335 333 338 335 330 327 332 336 338 341 340 337 334 332 326 323 320 317 315 314 315 316 317 314 311 315 324
315 315 316 318 316 309 307 304 302 301 303 306 312 315 313 313 312 309 309 313 315 315 317 317 316 316 316 316 316 316 317 318 320 321 321 322 321 319 318 318 318 318 321 330 334 336 332 334 334 336 335 334 332 333 334 337 336 337 337 337 336 332 329 327 325 325 315 312 312 312 312 312 313 323
314 314 314 317 317 309 304 302 300 300 303 305 314 314 306 305 307 311 314 314 315 314 314 314 314 314 314 314 314 315 316 317 320 319 321 322 321 321 322 320 319 318 320 329 329 336 334 332 334 334 334 334 332 332 332 331 333 332 333 335 338 334 331 330 328 326 319 318 317 313 316 311 314 317
313 314 315 318 317 305 300 298 300 303 307 310 311 303 304 306 308 311 313 313 312 312 312 312 312 312 313 313 313 314 314 316 317 319 321 322 322 321 323 324 323 322 326 335 338 338 335 331 335 335 332 335 332 329 329 331 333 334 333 332 333 331 330 331 329 327 322 321 322 312 311 310 312 315
312 313 312 314 306 299 296 298 303 308 310 311 305 304 306 308 310 313 312 310 310 311 310 310 310 310 312 312 312 314 315 316 317 319 322 322 323 321 322 323 325 324 325 327 331 337 336 333 332 335 336 335 333 331 329 332 334 334 333 333 332 330 330 331 330 328 325 324 322 317 317 313 315 317
313 309 304 302 302 301 300 301 305 308 309 308 307 307 308 312 311 310 309 309 309 307 308 308 309 310 311 311 313 315 316 318 319 319 321 321 322 323 322 322 323 324 325 327 330 335 337 335 333 333 332 334 333 330 332 331 334 334 335 333 332 332 331 332 331 328 325 324 321 319 319 318 317 320
308 306 306 307 310 309 312 314 316 314 313 312 310 310 311 310 310 309 308 308 307 306 307 308 308 309 310 311 313 315 316 315 315 316 318 319 318 320 322 321 321 323 325 327 332 337 338 336 335 333 330 330 331 330 331 331 329 332 334 334 335 334 333 333 332 330 327 324 322 321 322 323 321 321
307 310 313 312 312 312 312 314 314 313 313 311 310 309 309 310 309 308 308 307 306 307 306 308 308 309 310 312 313 312 313 314 315 317 317 318 317 317 320 323 321 323 327 332 335 337 338 337 337 334 331 330 331 332 332 332 330 329 331 335 335 331 332 334 334 331 330 328 325 324 326 327 325 325
306 309 312 313 316 315 311 310 308 307 308 309 309 307 307 308 310 310 309 309 307 306 307 308 309 309 309 309 310 311 312 313 314 316 316 317 317 318 316 314 314 316 321 324 326 327 333 336 335 334 333 332 330 329 330 331 330 331 331 334 336 337 335 333 334 333 333 330 327 326 328 328 327 325
306 309 311 310 309 309 308 307 306 305 304 307 306 306 305 306 306 305 304 303 303 305 306 306 307 307 307 308 309 310 310 311 313 314 314 316 316 318 316 314 313 314 314 316 318 321 322 325 336 335 332 329 331 332 331 327 328 330 330 331 332 332 335 336 336 335 333 330 329 329 329 331 331 328
302 306 306 305 305 305 304 304 305 304 303 303 303 303 305 305 304 304 303 303 303 304 305 306 305 305 306 306 307 308 309 310 312 312 313 314 315 315 315 314 313 314 315 315 316 317 318 323 330 327 323 321 318 316 320 326 328 331 333 332 332 332 333 336 337 336 333 331 331 329 329 330 333 333
305 304 303 302 302 303 303 303 303 302 301 302 301 300 301 301 302 303 302 301 302 304 304 305 305 305 305 305 306 307 308 309 310 311 312 313 314 313 314 314 314 314 314 314 314 316 317 319 324 325 325 324 322 319 317 318 321 320 326 332 334 334 334 337 336 335 334 333 333 330 329 330 331 334
302 302 300 300 301 301 301 302 303 302 300 300 299 298 299 299 300 300 300 300 301 302 303 302 303 303 304 305 305 306 307 308 308 309 309 310 311 312 312 314 315 315 315 314 314 316 316 316 315 320 324 324 322 319 314 314 313 311 317 326 332 334 335 336 336 335 334 333 332 331 328 328 330 333
301 301 301 300 300 300 300 301 302 302 301 299 299 298 298 298 298 298 299 300 301 302 302 302 301 302 303 304 304 305 306 307 306 307 307 308 309 310 310 311 314 314 315 315 315 315 316 315 315 314 319 324 323 318 314 318 312 310 308 312 320 330 334 334 334 332 333 333 332 331 330 330 330 332
300 300 301 302 301 301 302 302 303 302 301 301 300 300 298 297 297 298 299 298 299 300 301 300 301 302 302 303 302 303 304 306 306 306 306 307 307 308 308 309 310 311 314 316 315 314 315 315 315 314 314 318 320 313 311 313 314 312 307 308 315 322 329 332 331 331 332 333 332 332 330 329 330 332
301 302 301 301 301 301 301 301 302 300 300 300 299 298 297 296 296 297 298 298 298 298 298 299 299 301 301 301 302 302 302 304 304 305 305 306 306 307 307 308 308 309 312 314 315 313 314 314 315 314 314 312 311 311 312 310 310 314 310 305 309 316 321 324 330 332 332 331 332 331 328 326 324 326
304 303 302 303 302 301 302 302 299 298 297 298 296 297 294 296 295 296 296 297 297 297 297 298 300 299 299 300 300 301 302 302 303 304 305 305 306 307 307 307 307 308 309 311 313 314 312 313 314 315 315 315 316 318 317 316 316 317 316 312 304 306 309 316 325 329 330 332 331 329 327 328 326 325
304 301 300 302 300 300 300 299 298 297 296 296 295 298 294 293 293 294 296 296 297 295 296 296 297 298 298 298 298 299 299 300 301 303 304 304 305 306 307 308 306 307 307 308 311 313 314 315 319 316 320 318 320 320 317 313 311 313 314 316 309 306 306 309 310 312 317 329 330 329 327 327 326 326
299 299 299 299 298 297 297 296 295 294 294 294 294 294 293 293 293 295 295 296 294 295 294 295 296 297 298 298 298 299 298 298 299 300 302 302 302 303 306 306 304 305 305 306 308 312 317 320 320 317 316 317 316 314 312 313 312 313 315 316 318 311 309 308 309 311 311 313 325 327 324 324 326 325
301 297 298 300 299 297 296 295 294 293 293 292 292 292 291 290 289 290 290 291 292 293 293 294 295 296 296 297 297 299 298 297 298 298 299 300 301 301 302 304 305 305 306 307 309 312 316 319 319 316 314 314 313 314 311 312 314 314 314 315 315 317 318 314 311 311 311 311 310 310 314 321 323 321
297 298 296 296 296 295 294 293 292 291 291 290 291 290 290 288 287 288 289 290 291 291 293 293 294 294 295 297 297 297 298 298 298 298 298 299 300 300 301 303 305 305 306 306 308 310 312 317 318 318 314 312 313 312 311 312 312 314 315 315 316 315 315 316 317 314 314 313 311 311 312 310 310 310
298 296 296 295 295 294 293 291 290 289 288 288 288 289 290 287 289 288 288 289 290 291 292 292 293 293 294 297 296 296 298 299 298 298 298 299 299 299 300 301 302 303 304 305 306 308 310 314 316 317 317 317 315 314 316 315 313 313 314 314 314 315 315 315 314 313 313 314 312 310 311 312 313 312
Wind_Speed
3 4 4 4 4 3 2 3 3 2 1 1 1 1 2 1 3 5 4 5 5 3 5 5 3 6 8 9 9 10 10 12 16 11 11 11 10 13 17 18 18 19 21 22 23 23 24 24 24 24 24 24 25 26 26 25 26 27 26 25 25 24 23 23 23 22 22 22 22 22 22 21 21 20
4 4 4 4 4 3 4 5 4 2 2 2 1 2 2 3 2 3 6 7 2 6 5 4 6 7 11 9 9 9 11 15 18 12 12 12 11 15 17 17 18 19 21 23 23 23 24 25 24 23 23 24 26 26 26 25 25 25 26 25 25 24 23 23 22 22 22 22 22 22 22 22 21 20
4 5 5 5 4 4 5 4 4 2 3 3 3 3 3 3 4 5 5 8 3 1 7 7 9 10 10 10 10 10 10 12 16 13 12 12 15 20 17 20 19 20 21 22 22 21 22 23 23 24 24 25 26 25 25 25 25 25 25 24 24 24 23 23 22 22 22 22 22 22 22 21 21 20
5 6 6 5 5 5 5 5 4 3 3 4 4 4 5 4 5 5 5 9 10 4 7 7 10 11 11 10 11 11 9 11 17 12 13 14 18 14 12 18 20 21 22 23 23 23 23 24 24 24 24 25 24 24 24 24 25 25 24 24 24 24 24 23 22 22 22 22 22 21 21 21 21 20
5 6 6 6 6 6 6 5 5 4 5 4 5 5 5 5 5 5 6 8 10 6 4 6 8 10 10 11 9 12 11 11 11 12 12 13 12 12 12 12 17 20 21 22 23 24 24 24 25 26 26 25 24 24 24 24 24 24 24 24 24 24 24 23 23 22 22 22 22 22 21 21 20 20
5 5 6 6 6 7 6 1 2 4 5 5 5 6 5 5 6 6 5 6 7 11 6 8 6 9 8 11 10 10 13 13 10 13 13 11 11 11 11 11 12 18 20 21 22 23 24 24 25 26 26 25 24 24 24 24 23 23 23 23 23 23 23 23 23 22 22 22 22 22 21 20 20 19
5 4 5 6 6 1 3 2 8 6 5 6 7 7 5 6 7 6 7 6 7 9 9 7 10 8 9 9 13 12 11 11 11 12 13 12 11 10 11 11 10 15 18 20 20 22 23 24 25 25 25 25 24 24 23 23 23 22 23 23 23 23 23 23 23 22 22 22 22 22 21 20 20 19
4 5 5 7 4 4 6 6 7 8 7 7 7 6 5 6 7 7 6 8 8 6 10 8 9 10 10 11 11 10 11 12 11 10 12 13 12 12 11 11 11 13 18 19 20 20 22 23 24 24 24 24 24 23 22 22 22 22 22 22 22 22 22 22 23 23 22 22 22 22 22 21 20 19
4 5 6 7 5 5 7 8 8 8 9 3 2 6 7 7 7 6 6 7 7 8 10 11 8 9 9 10 11 10 11 12 11 10 11 12 13 13 12 10 11 15 19 19 19 20 21 22 23 24 23 23 22 21 21 21 21 21 21 21 21 21 22 22 22 22 22 22 22 22 21 21 20 19
5 5 6 6 6 6 8 9 8 4 3 5 9 9 8 7 7 6 6 6 7 8 10 10 11 9 11 11 10 10 10 11 12 13 12 11 11 10 11 10 9 8 8 8 10 14 17 20 22 23 23 23 23 22 21 21 21 21 21 21 21 21 21 22 21 21 21 21 21 21 21 20 20 19
6 6 6 6 6 7 8 8 4 6 8 8 10 9 9 7 5 6 6 7 8 8 9 9 10 11 10 9 13 11 8 11 10 12 13 13 10 9 10 12 10 8 9 12 16 14 13 14 15 19 23 24 23 22 21 21 21 20 21 20 20 21 21 22 21 21 21 21 21 21 20 20 20 19
6 6 6 6 6 6 7 7 8 8 8 8 8 8 6 6 5 6 6 6 7 8 8 9 11 9 11 11 10 10 9 11 10 7 9 13 14 14 11 11 12 11 10 10 9 11 13 14 16 18 20 22 23 23 22 23 22 22 21 20 21 21 22 22 22 21 21 21 21 21 20 19 19 19
6 6 6 5 5 7 10 13 12 11 9 6 7 8 6 5 6 6 6 7 7 8 8 10 9 10 11 11 12 11 10 11 13 12 11 12 12 12 13 13 11 10 11 10 10 10 9 10 10 10 10 12 18 20 23 19 23 23 21 21 22 22 22 21 21 21 21 20 20 20 20 19 19 19
6 6 5 5 9 11 12 12 13 13 13 12 10 9 5 6 5 5 7 8 7 7 9 10 11 11 12 13 12 12 12 12 12 12 12 13 12 12 13 14 11 8 9 10 11 11 9 10 10 10 12 11 13 11 12 13 15 18 21 22 22 22 21 21 21 21 20 20 20 20 20 20 19 19
7 6 5 5 6 7 8 8 10 11 12 12 13 14 12 9 8 7 8 8 7 8 9 10 10 11 14 14 12 12 13 12 13 12 12 12 12 12 13 16 13 6 8 9 10 12 9 9 11 10 11 12 10 10 12 17 20 20 20 22 21 21 21 21 21 20 20 20 20 20 20 20 20 20
5 6 6 5 4 5 6 6 5 7 10 12 12 11 11 13 15 14 10 8 7 9 9 10 11 12 14 14 12 13 13 14 14 13 13 13 13 14 14 13 14 9 5 8 9 11 8 8 10 11 11 11 10 11 15 18 18 20 20 21 22 22 21 21 21 21 20 20 20 20 20 20 20 20
5 5 6 6 5 5 9 7 5 5 6 8 10 11 12 12 12 12 12 12 10 8 9 11 13 13 13 14 13 13 15 15 16 16 14 13 13 13 14 15 13 14 7 10 12 12 10 7 10 11 11 10 9 11 14 18 18 19 20 20 21 21 21 21 21 20 21 20 21 20 20 20 20 20
5 5 6 6 6 6 5 5 5 4 5 5 5 5 5 6 8 9 10 11 13 11 8 9 12 13 12 14 15 15 15 16 17 16 17 15 15 15 15 15 15 16 9 11 10 12 12 8 9 11 11 9 9 9 12 19 19 20 20 20 20 21 21 21 21 21 20 21 21 21 21 20 20 19
5 5 6 5 6 7 6 6 4 4 5 5 6 5 6 6 6 5 5 6 6 7 8 9 11 13 14 14 16 16 15 16 16 16 18 19 18 16 15 15 16 15 11 11 11 15 11 5 10 11 9 8 9 9 12 17 19 20 20 20 20 20 21 21 21 21 21 21 21 21 21 20 19 18
4 4 5 5 5 6 6 8 7 6 5 4 5 6 6 6 4 5 6 11 11 11 10 10 12 13 16 18 19 19 18 17 17 17 17 16 15 15 14 16 12 13 10 10 12 12 12 7 9 10 8 7 8 8 8 13 19 19 19 19 20 20 20 20 20 21 21 21 21 20 20 19 19 19
4 4 4 4 5 6 6 7 5 3 1 2 4 5 6 5 4 7 7 10 13 13 14 17 20 22 22 23 23 25 27 22 20 17 15 16 15 14 15 15 13 14 10 9 12 12 12 9 8 9 6 7 8 8 9 8 13 18 18 19 20 20 20 20 20 20 20 21 21 20 19 19 18 18
3 4 8 7 4 5 5 4 4 2 1 3 4 4 4 6 7 8 7 7 8 12 15 18 20 20 21 22 22 24 24 26 22 15 18 19 14 13 12 14 12 11 10 11 11 11 13 7 8 8 2 3 4 6 7 8 9 15 16 19 20 19 19 19 20 20 20 21 20 19 19 18 15 10
2 4 5 6 4 3 2 2 2 2 2 3 3 3 3 6 8 8 8 9 11 11 12 13 13 14 16 15 15 18 24 26 23 17 16 15 13 11 11 13 11 11 12 11 12 12 9 9 7 8 4 6 4 3 4 7 6 7 7 9 11 15 17 18 19 20 20 20 19 19 18 17 14 9
5 4 4 4 1 1 2 4 5 5 3 3 2 2 4 7 9 7 9 10 10 11 11 12 12 14 15 15 15 16 17 18 17 17 15 14 11 12 12 13 13 13 9 5 13 11 8 8 8 8 8 6 4 4 5 5 6 7 8 7 7 12 14 13 11 14 14 15 17 17 18 17 16 9
4 5 5 5 2 2 3 4 3 2 3 3 2 3 4 5 9 10 8 10 11 10 11 11 12 12 12 13 14 15 16 16 16 16 16 13 11 11 12 12 12 12 11 6 10 11 8 7 8 7 9 7 3 3 3 5 4 6 7 9 9 7 8 9 7 8 11 13 14 15 16 18 20 14
4 4 4 5 3 2 4 4 2 4 4 6 2 2 5 9 10 8 7 7 7 8 9 10 11 11 12 13 14 16 17 17 18 18 17 15 12 11 11 12 12 12 11 8 9 9 7 7 9 8 7 8 4 3 4 3 3 3 4 5 7 8 9 8 8 7 7 7 7 10 13 17 17 19
4 4 4 4 1 3 4 4 5 6 5 3 1 5 7 8 10 9 6 7 7 7 8 9 10 11 11 13 15 16 17 18 19 19 18 18 10 11 11 12 11 11 4 3 1 6 6 4 4 10 9 7 5 2 2 3 3 3 3 4 4 5 6 7 9 9 9 10 8 13 12 14 16 17
4 4 4 5 9 5 5 6 7 3 2 0 3 6 8 9 8 6 6 6 7 8 8 9 10 11 11 12 13 15 16 18 19 19 17 16 9 10 8 10 12 8 7 10 9 4 5 6 3 6 9 10 7 5 4 2 3 5 5 3 2 3 4 6 6 6 7 7 7 8 9 8 9 11
3 5 8 10 9 6 6 8 7 3 3 2 5 8 9 9 6 6 6 7 7 8 9 9 10 10 11 12 13 14 15 18 17 15 15 14 11 4 6 5 6 7 8 10 11 8 6 5 5 4 4 6 7 4 6 3 3 4 5 6 3 4 5 5 5 8 8 8 10 10 10 10 11 9
8 8 9 8 2 5 3 4 0 2 2 4 6 8 8 4 5 6 6 7 7 8 9 9 10 10 11 12 13 14 13 14 16 17 16 14 14 11 2 5 5 7 8 10 10 7 6 5 5 6 3 3 6 7 5 6 2 4 6 6 3 4 4 6 6 5 6 6 9 9 8 8 9 12
5 6 5 2 0 5 5 4 2 3 4 3 4 4 5 4 4 5 5 6 7 7 8 10 10 10 10 10 12 13 13 14 15 16 17 13 13 14 11 1 1 4 6 6 7 6 6 6 4 7 7 4 4 6 5 5 5 4 5 5 7 7 4 6 6 7 7 7 7 7 7 8 8 9
5 4 5 2 1 1 2 3 3 3 3 4 4 5 5 4 4 6 8 7 4 5 7 8 9 9 10 11 12 12 12 12 13 14 15 15 13 12 11 11 11 9 7 6 5 6 6 4 5 4 5 6 6 2 3 4 5 5 3 4 5 4 5 7 6 5 7 7 8 8 8 8 10 11
5 1 2 4 4 4 3 3 5 5 5 5 5 5 5 5 5 5 6 7 8 8 8 9 10 10 10 10 11 11 12 12 13 13 13 13 13 10 10 11 10 11 10 8 7 6 5 5 3 4 2 6 6 4 7 4 3 3 5 5 4 2 4 7 7 7 8 8 9 8 7 7 8 9
2 1 3 4 4 4 5 5 5 5 5 6 6 5 5 6 6 6 6 6 7 8 8 8 9 10 10 10 11 11 11 13 12 13 13 13 13 13 12 12 11 10 9 8 7 7 7 4 4 8 8 8 11 12 7 2 1 3 4 3 5 7 6 4 6 9 11 11 10 7 7 7 7 8
2 4 4 4 4 4 4 4 4 5 5 6 5 6 6 5 6 6 6 7 7 7 8 8 8 8 9 9 10 11 11 12 12 11 11 12 13 13 12 11 12 12 11 10 10 9 6 7 1 6 6 6 7 8 16 11 4 4 2 2 5 6 5 6 6 8 9 8 8 10 10 8 8 8
4 3 3 3 3 3 3 3 3 4 4 4 5 5 6 6 6 7 7 7 7 7 7 8 8 9 9 9 10 10 11 11 11 12 12 13 13 13 12 12 12 10 9 10 10 8 7 6 6 2 6 8 6 5 4 14 14 4 3 1 1 4 5 5 7 7 8 7 8 8 8 10 10 8
4 3 3 2 1 1 2 2 2 2 3 4 5 4 5 6 7 6 6 6 6 6 7 7 7 8 8 9 9 10 10 10 11 11 12 12 12 12 12 12 12 11 10 10 9 8 6 7 7 8 1 7 8 7 5 1 10 13 4 1 3 2 3 4 5 6 7 8 7 8 9 9 8 8
2 1 1 0 0 1 1 1 2 2 2 3 3 4 4 5 5 6 6 6 7 7 7 7 8 8 8 8 9 9 10 9 9 10 11 11 11 12 11 11 11 12 11 10 11 10 7 7 10 9 7 1 5 8 4 3 4 11 13 2 3 4 4 3 6 7 6 6 9 9 5 6 8 8
1 0 0 0 0 1 1 2 2 3 4 3 4 4 5 5 6 6 6 7 7 7 7 7 8 8 8 8 8 8 9 10 11 11 11 10 10 10 11 11 10 11 10 10 10 11 10 13 11 10 10 11 8 4 7 9 8 4 10 16 7 3 3 3 4 6 7 8 7 4 2 2 3 5
1 1 1 1 2 2 2 3 3 3 5 5 5 4 5 5 6 6 6 7 7 8 7 7 9 8 8 8 8 8 8 9 9 9 10 10 10 10 10 9 9 10 10 11 10 11 12 12 12 10 8 7 4 2 3 10 7 4 9 16 18 11 5 3 1 2 6 7 5 7 6 5 4 1
1 1 3 1 3 3 5 4 4 5 5 5 4 5 5 5 6 6 6 6 7 7 8 8 8 8 8 8 8 8 8 8 9 9 9 9 10 9 12 11 10 10 10 11 12 10 11 9 11 14 9 6 4 4 2 6 13 9 10 9 13 17 16 10 7 4 4 1 6 7 8 9 7 6
1 2 3 4 3 3 4 5 5 5 5 5 5 5 5 5 5 8 7 8 6 7 7 7 8 8 8 8 8 8 8 9 9 9 10 9 10 11 11 9 10 10 9 9 8 9 8 5 7 7 7 7 7 9 12 9 8 8 6 6 6 9 13 17 21 20 16 8 3 6 3 2 5 7
1 2 3 3 3 4 5 5 4 4 4 4 4 4 5 5 5 6 6 6 6 6 7 7 7 7 8 8 7 7 7 8 9 9 9 9 9 10 10 9 8 7 7 7 6 6 7 6 6 7 7 8 8 8 10 9 7 6 6 7 7 6 8 11 17 23 24 20 15 10 3 2 3 5
2 3 2 3 4 4 4 5 5 4 4 4 4 4 5 5 5 5 5 5 6 7 7 7 7 7 8 8 7 7 7 8 8 8 9 9 9 8 9 9 9 9 9 9 9 8 7 6 5 5 8 9 7 9 8 8 8 7 6 6 6 7 8 8 8 11 18 23 20 18 21 21 16 11
3 3 4 3 4 5 5 5 5 4 4 4 4 5 4 4 4 5 5 5 6 6 7 7 7 7 8 7 7 8 8 9 8 8 8 8 8 8 9 9 10 9 9 8 8 9 8 6 5 4 4 5 6 7 7 7 7 6 7 7 8 7 7 7 9 11 11 12 13 16 21 22 23 21
Wind_Direction
201 181 181 186 206 229 190 168 170 158 146 200 205 194 218 225 289 314 302 314 315 303 332 327 300 317 309 308 306 302 296 296 298 292 287 278 265 255 248 246 243 241 242 241 238 232 229 227 226 223 223 225 229 230 229 229 230 232 234 233 232 232 232 231 232 231 230 230 229 230 230 231 232 232
197 194 192 191 206 207 178 184 185 153 181 190 193 212 209 172 213 248 291 296 267 286 313 301 297 314 311 308 303 304 300 299 301 292 287 280 271 262 258 251 246 242 241 240 239 236 233 230 227 225 222 223 226 229 230 230 230 232 233 232 232 232 231 231 230 230 230 230 230 229 229 230 231 231
194 198 204 202 206 195 191 192 184 163 179 195 195 196 193 216 210 234 248 290 241 259 305 301 297 302 303 304 303 300 298 298 301 297 288 283 275 269 264 258 250 245 243 241 238 235 233 233 231 228 226 225 226 227 228 229 230 231 232 233 233 232 231 230 230 229 230 230 231 229 229 229 230 230
201 203 209 209 210 202 195 192 183 188 208 192 189 196 199 224 229 225 243 259 275 256 278 285 294 299 302 303 300 299 299 297 301 298 294 288 285 275 269 261 252 245 244 243 242 240 237 234 234 231 229 228 228 228 228 228 229 229 230 231 232 233 232 231 230 229 229 230 230 230 229 229 229 230
213 210 212 216 216 202 202 204 194 193 212 208 206 202 199 227 236 224 237 260 279 278 245 280 289 296 303 299 294 299 299 299 298 294 289 288 282 276 268 264 255 247 244 243 241 241 240 236 234 235 234 231 229 228 228 227 227 228 229 230 230 231 232 231 230 229 229 228 228 229 228 227 227 227
228 218 215 224 223 212 213 251 239 213 217 211 214 216 201 212 237 226 228 250 272 288 291 288 279 290 293 293 295 297 303 301 300 298 296 289 282 275 270 264 260 251 246 243 242 241 240 238 234 234 235 234 232 231 230 229 227 227 228 228 228 229 230 231 230 229 228 227 228 228 226 225 224 224
234 227 226 230 227 80 58 242 238 232 229 223 217 225 210 213 226 233 224 244 266 277 287 290 298 297 298 291 299 299 294 293 294 293 294 296 291 280 272 266 260 254 249 245 241 240 240 238 236 234 234 234 235 234 232 231 229 227 226 226 226 226 228 228 228 228 226 226 227 227 226 224 222 221
230 229 236 242 206 171 208 226 229 229 229 225 225 232 237 223 231 233 231 228 247 270 287 291 293 297 300 295 290 292 290 294 295 291 291 291 288 284 275 267 262 256 250 245 242 239 238 237 236 236 235 235 234 234 233 232 231 228 226 225 224 225 227 227 227 226 226 226 226 226 226 224 222 219
239 236 234 244 212 204 222 239 237 233 235 261 310 256 241 234 238 240 237 243 242 265 278 287 285 290 287 282 288 290 296 298 295 291 288 291 292 286 275 268 260 256 252 247 243 241 239 237 236 236 236 235 235 234 233 233 232 230 228 227 225 224 226 227 227 226 226 226 226 226 226 225 222 219
243 237 238 238 227 220 224 234 240 247 244 227 235 241 241 236 236 242 252 255 260 260 271 283 293 287 291 293 284 291 293 297 302 302 294 288 282 284 287 275 266 258 252 250 244 243 243 241 236 236 237 237 235 233 232 232 231 230 228 227 226 225 225 225 226 225 225 225 225 225 225 225 223 221
246 239 235 235 229 228 233 243 232 212 226 234 241 241 243 244 242 245 251 256 264 267 279 283 279 287 282 277 292 293 290 288 286 293 300 298 293 291 295 296 289 273 262 251 245 243 239 235 235 234 234 234 234 233 232 232 230 228 227 225 223 223 224 224 224 224 223 224 224 224 224 223 223 222
249 246 244 241 238 233 235 229 234 230 236 238 251 251 242 245 248 252 257 264 267 275 279 279 288 284 290 292 277 286 298 297 290 270 285 295 301 300 291 278 284 281 270 266 260 246 244 244 240 238 237 234 233 232 232 230 228 227 225 223 222 222 222 223 223 222 222 222 222 222 221 220 222 222
251 256 254 253 246 232 230 225 227 230 231 233 246 253 233 239 239 254 264 264 267 272 279 286 284 290 291 288 295 300 299 294 292 299 293 284 283 286 288 285 268 263 265 262 256 251 235 236 234 230 231 231 227 231 228 230 228 226 223 221 221 221 220 220 221 221 221 220 220 219 219 218 219 221
272 263 258 254 242 231 232 232 234 241 244 240 236 251 245 242 252 260 267 269 274 283 287 287 291 294 289 291 293 293 289 287 288 288 287 284 288 287 282 279 268 254 247 254 255 250 234 229 237 228 231 232 219 223 219 222 222 222 220 220 220 219 218 217 218 219 218 218 217 216 216 216 216 217
268 277 271 257 259 260 260 255 245 243 248 251 245 246 250 246 241 259 261 266 276 287 287 288 288 285 288 288 291 291 292 289 286 285 284 280 281 281 288 290 294 250 237 246 251 256 234 218 231 229 227 228 219 214 220 215 216 219 214 215 216 216 215 215 215 215 216 216 215 214 213 214 214 215
257 260 266 264 255 262 261 262 263 257 252 251 252 246 239 240 239 232 231 258 284 281 286 287 286 288 287 293 297 295 294 293 291 286 280 276 275 274 273 271 270 276 260 264 254 256 245 212 226 233 228 224 218 215 215 213 211 213 214 210 210 211 212 212 212 212 212 213 213 213 212 213 214 214
259 263 265 272 271 263 269 270 259 254 263 259 252 248 250 252 247 242 237 234 240 258 268 277 282 282 289 293 291 290 291 292 289 289 282 274 267 261 262 263 269 270 257 268 264 266 257 215 223 231 230 219 213 214 209 205 204 207 209 208 207 207 208 209 209 210 210 211 212 212 212 211 212 212
267 263 261 267 278 279 276 266 259 259 253 260 262 258 251 252 262 260 254 261 264 258 257 267 276 281 285 286 288 286 286 289 288 287 283 280 272 265 258 262 261 264 262 266 279 272 260 224 223 229 231 213 213 211 202 201 203 202 204 205 204 204 204 205 207 208 209 209 210 210 210 210 209 209
258 262 256 250 256 270 274 267 250 249 259 261 259 259 258 254 258 260 270 270 271 282 283 278 278 283 285 283 284 286 284 281 281 278 278 278 274 270 267 261 254 263 251 254 257 260 262 218 227 233 228 212 218 214 211 198 199 200 201 202 203 203 203 203 205 206 208 209 209 210 209 208 206 206
262 260 259 260 267 268 269 271 261 247 251 249 251 257 261 272 274 267 258 265 270 270 275 281 284 287 285 283 285 285 285 284 282 279 274 271 268 262 255 252 252 253 246 221 240 256 262 236 224 237 229 214 222 216 216 202 197 198 200 201 201 202 201 203 204 206 207 209 210 208 207 205 203 203
275 273 269 269 273 272 271 270 273 286 185 227 255 265 281 285 287 282 285 273 268 274 284 287 285 282 283 284 284 285 284 284 284 282 277 269 265 252 245 246 243 247 241 227 222 238 253 234 223 233 225 208 213 213 214 207 200 198 200 201 202 201 201 202 204 206 207 208 208 207 204 203 202 199
275 283 298 301 283 271 263 252 255 215 241 254 273 296 291 299 299 295 295 298 297 298 294 290 290 292 293 293 292 290 290 291 289 283 279 278 266 246 229 240 235 247 238 232 212 225 234 231 218 230 221 229 235 213 212 203 197 200 202 203 201 200 200 202 204 204 207 207 206 204 199 198 191 180
290 305 310 302 299 292 261 240 285 325 324 286 284 276 293 295 294 291 306 308 310 310 309 304 306 306 304 304 306 304 299 296 292 282 276 277 268 239 222 224 228 239 241 224 193 214 227 220 218 201 194 215 244 221 205 201 185 178 187 198 206 207 203 204 203 205 207 205 203 199 194 186 172 167
321 310 308 316 21 78 35 352 326 315 297 258 280 285 297 302 292 319 317 304 301 298 297 296 301 302 306 308 309 308 306 305 298 295 288 282 263 235 220 215 212 225 234 204 183 208 220 208 219 194 206 191 219 210 192 208 190 179 176 180 192 202 200 203 214 217 216 209 202 195 187 176 173 153
291 301 303 304 276 221 349 334 305 242 221 227 251 296 312 304 301 306 295 299 300 299 301 304 307 306 310 312 313 311 311 311 311 307 302 289 260 227 220 210 211 223 228 218 190 197 212 197 211 187 210 216 204 173 201 193 188 173 178 178 188 177 174 192 194 196 203 205 202 194 185 179 180 178
287 285 292 297 310 317 290 287 238 194 211 224 246 297 275 289 308 313 303 299 305 303 307 310 310 311 315 320 318 316 317 319 320 318 314 305 265 227 219 209 206 216 219 217 220 216 214 211 194 186 192 197 219 167 129 154 171 172 160 187 191 178 176 175 177 185 153 145 166 184 187 185 186 187
285 294 290 287 260 293 258 241 205 194 185 176 272 297 320 325 320 318 320 318 313 313 316 312 309 312 318 322 321 319 321 323 326 326 320 314 267 220 216 218 214 222 215 253 266 249 229 253 213 188 189 197 175 136 122 139 162 136 157 179 174 158 177 168 182 185 149 167 175 180 179 184 188 191
273 290 302 302 303 285 223 203 201 172 106 336 316 334 332 331 332 332 325 324 324 325 320 318 316 317 320 319 317 320 320 323 326 320 319 325 294 214 216 217 221 223 223 262 268 262 232 223 260 248 192 179 177 163 166 115 113 157 157 139 155 153 167 179 183 163 165 169 144 160 147 164 190 185
307 304 300 293 293 230 172 182 202 208 222 307 1 353 349 355 347 342 334 332 335 331 327 316 314 319 321 315 310 311 316 317 318 325 330 339 345 257 221 224 218 218 217 236 249 247 243 235 221 250 226 182 159 150 143 156 155 159 149 128 183 180 158 174 170 174 163 160 163 159 178 166 179 191
315 309 303 307 305 124 128 164 237 339 340 354 9 2 3 356 347 345 337 337 339 331 323 320 322 319 315 316 313 314 320 326 327 337 337 341 359 1 229 208 229 224 224 230 247 254 241 217 204 227 259 190 141 145 149 133 168 164 151 173 166 85 180 170 176 160 150 163 164 175 181 188 186 170
333 316 315 309 357 107 119 108 62 25 4 4 1 358 356 345 341 340 336 331 327 321 320 322 320 316 311 311 326 331 334 331 332 343 337 345 1 9 5 251 283 266 233 229 237 252 243 233 214 193 199 192 127 156 169 154 170 173 186 175 156 192 179 169 160 164 171 164 164 170 168 166 164 186
312 303 302 337 71 77 38 26 26 9 4 3 2 351 349 338 331 337 334 329 309 310 309 306 306 315 331 339 328 327 334 335 333 342 339 345 356 10 11 25 17 6 6 5 359 348 333 253 194 211 245 182 151 134 107 156 179 178 167 174 191 188 113 178 173 154 148 142 156 183 189 181 181 186
305 306 33 27 27 32 15 25 12 10 2 4 1 351 344 338 336 338 347 348 342 332 330 329 329 327 331 332 335 335 335 338 336 342 337 343 356 357 17 27 14 12 6 358 349 333 335 324 252 192 23 340 35 116 149 149 193 176 187 177 171 154 176 175 171 152 149 157 189 185 189 193 187 187
284 24 60 33 30 20 29 23 15 6 1 2 359 353 342 345 343 348 345 343 334 333 331 327 328 334 334 337 338 338 339 337 340 337 338 346 356 2 7 13 13 4 1 359 356 349 331 336 63 98 93 72 60 46 23 16 115 176 214 191 169 210 208 164 177 165 167 184 186 182 191 199 196 190
35 51 46 26 16 20 28 33 19 14 6 1 352 350 341 338 342 344 345 342 336 333 332 329 330 327 335 335 337 340 342 342 337 339 345 352 359 4 357 3 9 6 1 357 1 354 346 350 180 138 120 115 85 44 44 32 33 22 344 218 199 216 205 188 181 176 180 184 180 191 196 195 198 195
52 40 56 41 25 21 35 32 28 13 9 351 349 339 343 345 343 347 344 336 332 330 332 335 333 335 337 342 342 342 341 342 345 346 350 359 357 357 357 0 358 356 359 3 357 352 352 16 32 19 188 150 134 112 40 50 53 24 33 327 273 218 203 190 185 177 178 183 189 189 190 196 202 192
70 54 58 61 30 30 34 12 12 2 354 346 342 342 343 338 340 333 327 323 330 332 331 328 331 333 337 341 344 345 343 348 347 348 355 355 356 355 356 356 355 348 355 3 358 353 359 20 22 44 342 166 160 146 103 171 58 48 44 311 310 303 228 188 176 176 188 182 184 192 202 196 198 194
94 92 68 41 5 329 357 1 334 344 340 348 346 341 344 338 333 330 325 340 340 338 335 336 334 336 340 343 348 347 345 344 346 357 358 357 356 355 354 354 351 348 345 0 3 360 357 25 37 37 30 356 150 123 124 39 17 21 14 3 249 285 303 233 188 184 183 185 189 195 183 198 201 188
84 162 239 240 312 289 301 316 333 347 348 352 357 1 351 352 343 341 344 346 341 339 336 337 341 337 338 341 346 350 348 350 354 354 354 354 355 354 354 353 352 349 346 1 8 4 10 28 27 26 35 41 32 32 103 106 66 64 39 44 34 351 317 306 229 190 187 191 195 168 151 49 59 120
249 233 239 246 289 298 320 349 359 6 27 20 7 12 18 1 355 349 349 349 345 342 338 339 338 335 341 345 347 347 354 356 352 348 350 348 351 354 358 352 355 354 351 360 6 16 17 24 18 15 25 32 49 351 49 97 122 94 55 40 38 39 336 271 298 247 205 186 163 174 169 144 146 131
293 299 303 333 28 24 46 41 30 34 30 23 19 21 22 8 358 356 348 352 345 341 342 340 342 340 339 344 349 352 352 352 351 351 352 351 350 353 354 357 3 0 357 5 0 6 26 10 9 12 24 29 7 253 243 64 54 40 47 45 38 37 34 48 63 45 358 266 169 177 178 177 162 149
68 43 43 68 66 45 56 52 36 39 31 23 24 18 13 11 6 358 355 353 345 343 340 342 342 340 338 342 348 350 354 353 351 350 351 354 353 353 358 7 3 352 357 356 350 343 345 347 1 10 19 32 31 41 46 49 56 46 47 46 44 43 41 45 60 59 51 16 227 177 142 129 146 158
48 68 80 71 80 68 67 63 49 46 37 27 25 14 19 8 0 1 356 351 346 345 342 338 339 340 338 336 347 348 352 355 352 350 348 352 355 355 354 356 355 348 350 348 339 331 335 344 359 12 23 39 36 43 47 37 36 34 32 36 37 28 38 42 48 58 55 44 47 58 6 192 159 165
57 81 87 93 80 80 70 71 60 47 40 30 20 19 23 14 4 359 350 346 347 343 335 337 339 341 339 335 342 349 358 354 348 349 350 347 349 350 351 350 357 358 360 360 349 349 336 346 358 7 35 38 32 45 41 35 30 16 11 24 24 30 35 31 33 47 58 47 22 44 57 63 66 66
72 112 112 96 93 84 84 74 69 52 44 27 24 17 23 17 7 352 348 348 347 342 342 340 339 338 339 335 345 356 352 350 349 348 347 348 351 356 357 357 2 3 6 357 352 352 348 343 358 2 34 39 44 52 46 46 35 25 20 18 20 22 33 28 38 46 46 63 12 24 57 56 60 56